Location: Prairie State College
(41.5244°N, 87.6382°W)
Time: 05:19:38
(UTC-05:00)

Cosmos 1140 Rocket - Visible Passes

Search period start: 23 May 2015 00:00
Search period end: 02 June 2015 00:00
Orbit: 744 x 769 km, 74.1° (Epoch: 21 May)

Date Brightness Start Highest point End Pass type
(mag) Time Alt. Az. Time Alt. Az. Time Alt. Az.
23 May 5.4 22:03:18 10° SW 22:07:57 31° WNW 22:12:34 10° N visible
24 May 4.3 21:22:15 10° SW 21:27:21 55° WNW 21:32:32 10° N visible
25 May 3.5 20:41:43 10° SSW 20:46:56 83° ESE 20:52:13 10° NNE visible
25 May 6.5 22:26:41 10° W 22:29:34 14° NW 22:32:15 10° NNW visible
26 May 6.0 21:44:28 10° WSW 21:48:43 24° WNW 21:52:54 10° N visible
27 May 7.3 04:48:28 10° NNE 04:50:09 12° NE 04:52:05 10° ENE visible
27 May 5.0 21:03:06 10° SW 21:08:03 41° WNW 21:13:01 10° N visible
28 May 7.0 22:09:00 10° WNW 22:10:28 11° NW 22:11:40 10° NW visible
29 May 6.5 21:25:50 10° W 21:29:33 19° NW 21:33:07 10° NNW visible
30 May 6.9 04:28:08 10° NNE 04:31:02 15° NE 04:34:08 10° E visible
30 May 5.7 20:44:07 10° SW 20:48:47 31° WNW 20:53:26 10° N visible
01 Jun 6.9 21:07:28 10° W 21:10:24 14° NW 21:13:08 10° NNW visible
